Location: Carlisle
(34.5501°N, 84.5969°W)
Time: 13:32:25
(UTC+00:00)

Tiangong - Pass Details

Date: 28 November 2022
Orbit: 383 x 387 km, 41.5° (Epoch: 27 January)

Event Time Altitude Azimuth Distance (km) Brightness Sun altitude
Rises 23:20:22 0° 224° (SW) 2,249 3.0 -10.8°
Reaches altitude 10° 23:22:31 10° 215° (SW) 1,402 1.6 -11.2°
Maximum altitude 23:25:27 35° 147° (SSE) 645 -1.2 -11.8°
Enters shadow 23:27:11 19° 92° (E) 982 -0.7 -12.1°
